Location: Branche des Alpilles
(43.6087°N, 4.6976°E)
Time: 05:28:42
(UTC+00:00)

COSMO-SKYMED 1 - Pass Details

Date: 30 November 2020
Orbit: 621 x 623 km, 97.9° (Epoch: 24 January)

Event Time Altitude Azimuth Distance (km) Brightness Sun altitude
Exits shadow 17:05:17 - 34° (NE) 2,105 4.8 -10.6°
Reaches altitude 10° 17:05:35 10° 36° (NE) 2,003 4.7 -10.6°
Maximum altitude 17:09:19 28° 95° (E) 1,185 3.5 -11.3°
Drops below altitude 10° 17:13:02 10° 155° (SSE) 1,988 5.1 -11.9°
Sets 17:15:29 0° 167° (SSE) 2,889 6.1 -12.3°
